| time (UTC) | temp C | wind direction | speed KPH | gust KPH | rain 1hr cm | rain 24hr cm | rain mn cm | humidity % | barometer mb |
| 20260506061017 | 6 | 327 | 3.2 | 11.3 | 0.00 | 0.00 | 0.00 | 63 | 1008.8 |
| 20260506060517 | 6 | 312 | 4.8 | 11.3 | 0.00 | 0.00 | 0.00 | 62 | 1008.9 |
| 20260506051016 | 6 | 300 | 6.4 | 14.5 | 0.00 | 0.00 | 0.00 | 61 | 1008.8 |
| 20260506050537 | 6 | 286 | 8.0 | 12.9 | 0.00 | 0.00 | 0.00 | 61 | 1009.1 |
| 20260506045018 | 6 | 304 | 8.0 | 12.9 | 0.00 | 0.00 | 0.00 | 63 | 1008.6 |
| 20260506044516 | 6 | 303 | 8.0 | 12.9 | 0.00 | 0.00 | 0.00 | 63 | 1008.6 |
| 20260506044016 | 6 | 280 | 4.8 | 9.7 | 0.00 | 0.00 | 0.00 | 66 | 1008.6 |
| 20260506043518 | 6 | 289 | 3.2 | 6.4 | 0.00 | 0.00 | 0.00 | 66 | 1008.5 |
| 20260506043018 | 6 | 287 | 3.2 | 8.0 | 0.00 | 0.00 | 0.00 | 67 | 1008.3 |
| 20260506042518 | 6 | 311 | 3.2 | 8.0 | 0.00 | 0.00 | 0.00 | 67 | 1007.9 |
| 20260506042017 | 6 | 313 | 0.0 | 6.4 | 0.00 | 0.00 | 0.00 | 70 | 1008.1 |
| 20260506041517 | 6 | 0.0 | 0.0 | 0.00 | 0.00 | 0.00 | 71 | 1008.1 | |
| 20260506041018 | 6 | 0.0 | 0.0 | 0.00 | 0.00 | 0.00 | 71 | 1008.0 | |
| 20260506040517 | 6 | 0.0 | 0.0 | 0.00 | 0.00 | 0.00 | 71 | 1007.9 | |
| 20260506040016 | 6 | 0.0 | 0.0 | 0.00 | 0.00 | 0.00 | 71 | 1008.0 | |
| 20260506035535 | 6 | 0.0 | 0.0 | 0.00 | 0.00 | 0.00 | 72 | 1008.0 | |
| 20260506035015 | 6 | 0.0 | 0.0 | 0.00 | 0.00 | 0.00 | 73 | 1008.0 | |
| 20260506034515 | 6 | 0.0 | 0.0 | 0.00 | 0.03 | 0.00 | 73 | 1008.0 | |
| 20260506034017 | 6 | 0.0 | 0.0 | 0.00 | 0.03 | 0.00 | 73 | 1008.0 | |
| 20260506033517 | 6 | 0.0 | 0.0 | 0.00 | 0.03 | 0.00 | 72 | 1007.9 | |
| 20260506033017 | 6 | 0.0 | 0.0 | 0.00 | 0.03 | 0.00 | 74 | 1007.9 | |
| 20260506032537 | 6 | 0.0 | 0.0 | 0.00 | 0.03 | 0.00 | 74 | 1007.9 | |
| 20260506032018 | 6 | 0.0 | 0.0 | 0.00 | 0.03 | 0.00 | 74 | 1007.8 | |
| 20260506031517 | 6 | 0.0 | 0.0 | 0.00 | 0.03 | 0.00 | 73 | 1007.7 | |
| 20260506031017 | 6 | 0.0 | 0.0 | 0.00 | 0.03 | 0.00 | 72 | 1008.0 | |
| 20260506030517 | 6 | 0.0 | 0.0 | 0.00 | 0.03 | 0.00 | 71 | 1008.1 | |
| 20260506030018 | 6 | 0.0 | 0.0 | 0.00 | 0.03 | 0.00 | 71 | 1008.0 | |
| 20260506025517 | 6 | 0.0 | 0.0 | 0.00 | 0.03 | 0.00 | 70 | 1008.0 | |
| 20260506025018 | 6 | 0.0 | 0.0 | 0.00 | 0.03 | 0.00 | 70 | 1007.9 | |
| 20260506024517 | 6 | 0.0 | 0.0 | 0.00 | 0.03 | 0.00 | 70 | 1007.9 | |
| 20260506024017 | 6 | 0.0 | 0.0 | 0.00 | 0.03 | 0.00 | 69 | 1007.9 | |
| 20260506023518 | 6 | 0.0 | 0.0 | 0.00 | 0.03 | 0.00 | 69 | 1007.7 | |
| 20260506023017 | 6 | 0.0 | 0.0 | 0.00 | 0.03 | 0.00 | 69 | 1007.6 | |
| 20260506022517 | 6 | 0.0 | 0.0 | 0.00 | 0.03 | 0.00 | 67 | 1007.5 | |
| 20260506022017 | 6 | 0.0 | 0.0 | 0.00 | 0.03 | 0.00 | 65 | 1007.6 | |
| 20260506021537 | 7 | 0.0 | 0.0 | 0.00 | 0.03 | 0.00 | 65 | 1007.6 | |
| 20260506021017 | 7 | 0.0 | 0.0 | 0.00 | 0.03 | 0.00 | 63 | 1007.4 | |
| 20260506020517 | 7 | 0.0 | 0.0 | 0.00 | 0.03 | 0.00 | 63 | 1007.3 | |
| 20260506020017 | 7 | 0.0 | 0.0 | 0.00 | 0.03 | 0.00 | 63 | 1007.3 | |
| 20260506015517 | 7 | 0.0 | 0.0 | 0.00 | 0.03 | 0.00 | 62 | 1007.1 | |
| 20260506015017 | 7 | 0.0 | 0.0 | 0.00 | 0.03 | 0.00 | 62 | 1007.1 | |
| 20260506014517 | 7 | 0.0 | 0.0 | 0.00 | 0.03 | 0.00 | 62 | 1007.0 | |
| 20260506014017 | 7 | 0.0 | 0.0 | 0.00 | 0.03 | 0.00 | 62 | 1006.9 | |
| 20260506013517 | 7 | 0.0 | 0.0 | 0.00 | 0.03 | 0.00 | 62 | 1006.8 | |
| 20260506013037 | 7 | 0.0 | 0.0 | 0.00 | 0.03 | 0.00 | 61 | 1006.6 | |
| 20260506012518 | 7 | 0.0 | 0.0 | 0.00 | 0.03 | 0.00 | 60 | 1006.5 | |
| 20260506012018 | 8 | 0.0 | 0.0 | 0.00 | 0.03 | 0.00 | 57 | 1006.5 | |
| 20260506011517 | 8 | 0.0 | 0.0 | 0.00 | 0.03 | 0.00 | 56 | 1006.5 | |
| 20260506011018 | 8 | 0.0 | 0.0 | 0.00 | 0.03 | 0.00 | 55 | 1006.5 | |
| 20260506010516 | 8 | 0.0 | 0.0 | 0.00 | 0.03 | 0.00 | 56 | 1006.6 | |
| 20260506010016 | 8 | 0.0 | 0.0 | 0.00 | 0.03 | 0.00 | 57 | 1006.6 | |
| 20260506005517 | 8 | 0.0 | 0.0 | 0.00 | 0.03 | 0.00 | 55 | 1006.7 | |
| 20260506005016 | 8 | 0.0 | 0.0 | 0.00 | 0.03 | 0.00 | 52 | 1006.5 | |
| 20260506004517 | 8 | 0.0 | 0.0 | 0.00 | 0.03 | 0.00 | 52 | 1006.6 | |
| 20260506004017 | 9 | 0.0 | 0.0 | 0.00 | 0.03 | 0.00 | 53 | 1006.7 | |
| 20260506003537 | 9 | 0.0 | 3.2 | 0.00 | 0.03 | 0.00 | 51 | 1006.6 | |
| 20260506003016 | 9 | 309 | 0.0 | 3.2 | 0.00 | 0.03 | 0.00 | 50 | 1006.6 |
| 20260506002516 | 9 | 309 | 0.0 | 3.2 | 0.00 | 0.03 | 0.00 | 49 | 1006.6 |
| 20260506002038 | 9 | 308 | 1.6 | 3.2 | 0.00 | 0.03 | 0.00 | 46 | 1006.6 |
| 20260506001537 | 9 | 304 | 1.6 | 3.2 | 0.00 | 0.03 | 0.00 | 46 | 1006.6 |
| 20260506001016 | 9 | 304 | 1.6 | 3.2 | 0.00 | 0.03 | 0.00 | 45 | 1006.6 |
| 20260506000517 | 9 | 299 | 1.6 | 3.2 | 0.00 | 0.03 | 0.00 | 45 | 1006.7 |
| 20260506000017 | 9 | 295 | 1.6 | 6.4 | 0.00 | 0.03 | 0.00 | 46 | 1006.7 |
| 20260505235536 | 9 | 290 | 3.2 | 8.0 | 0.00 | 0.03 | 0.00 | 44 | 1006.8 |
| 20260505235038 | 9 | 302 | 4.8 | 8.0 | 0.00 | 0.03 | 0.00 | 44 | 1006.8 |
| 20260505234516 | 9 | 304 | 3.2 | 9.7 | 0.00 | 0.03 | 0.00 | 44 | 1006.8 |
| 20260505234016 | 9 | 281 | 3.2 | 9.7 | 0.00 | 0.03 | 0.00 | 44 | 1006.7 |
| 20260505233517 | 9 | 275 | 3.2 | 9.7 | 0.00 | 0.03 | 0.00 | 45 | 1006.7 |
| 20260505233018 | 9 | 288 | 3.2 | 9.7 | 0.00 | 0.03 | 0.00 | 45 | 1006.7 |
| 20260505232516 | 9 | 259 | 4.8 | 9.7 | 0.00 | 0.03 | 0.00 | 47 | 1006.7 |
| 20260505232017 | 9 | 282 | 3.2 | 11.3 | 0.00 | 0.03 | 0.00 | 44 | 1006.8 |
| 20260505231516 | 9 | 266 | 6.4 | 12.9 | 0.00 | 0.03 | 0.00 | 44 | 1006.9 |
| 20260505231037 | 10 | 305 | 4.8 | 12.9 | 0.00 | 0.03 | 0.00 | 44 | 1006.8 |
| 20260505230517 | 10 | 314 | 6.4 | 12.9 | 0.00 | 0.03 | 0.00 | 43 | 1006.9 |
| 20260505230037 | 10 | 292 | 6.4 | 12.9 | 0.00 | 0.03 | 0.00 | 42 | 1006.9 |
| 20260505225536 | 10 | 290 | 4.8 | 14.5 | 0.00 | 0.03 | 0.00 | 43 | 1006.9 |
| 20260505225017 | 10 | 312 | 8.0 | 14.5 | 0.00 | 0.03 | 0.00 | 43 | 1006.9 |
| 20260505224517 | 10 | 309 | 8.0 | 14.5 | 0.00 | 0.03 | 0.00 | 44 | 1006.9 |
| 20260505224017 | 10 | 314 | 8.0 | 16.1 | 0.00 | 0.03 | 0.00 | 43 | 1006.9 |
| 20260505223518 | 10 | 321 | 8.0 | 16.1 | 0.00 | 0.03 | 0.00 | 42 | 1007.0 |
| 20260505223016 | 10 | 301 | 6.4 | 12.9 | 0.00 | 0.03 | 0.00 | 44 | 1006.9 |
| 20260505222517 | 10 | 295 | 4.8 | 16.1 | 0.00 | 0.03 | 0.00 | 44 | 1006.8 |
| 20260505222017 | 10 | 282 | 8.0 | 16.1 | 0.00 | 0.03 | 0.00 | 44 | 1006.7 |
| 20260505221516 | 10 | 286 | 8.0 | 14.5 | 0.00 | 0.03 | 0.00 | 43 | 1006.8 |
| 20260505221057 | 10 | 284 | 9.7 | 12.9 | 0.00 | 0.03 | 0.00 | 43 | 1006.8 |
| 20260505220516 | 10 | 282 | 8.0 | 17.7 | 0.00 | 0.03 | 0.00 | 43 | 1006.8 |
| 20260505220016 | 10 | 277 | 11.3 | 17.7 | 0.00 | 0.03 | 0.00 | 43 | 1006.8 |
| 20260505215516 | 10 | 288 | 9.7 | 17.7 | 0.00 | 0.03 | 0.00 | 44 | 1006.7 |
| 20260505215036 | 10 | 286 | 9.7 | 19.3 | 0.00 | 0.03 | 0.00 | 43 | 1006.8 |
| 20260505214516 | 10 | 277 | 11.3 | 19.3 | 0.00 | 0.03 | 0.00 | 42 | 1006.8 |
| 20260505214016 | 10 | 267 | 9.7 | 20.9 | 0.00 | 0.03 | 0.00 | 44 | 1006.8 |
| 20260505213516 | 10 | 264 | 11.3 | 20.9 | 0.00 | 0.03 | 0.00 | 44 | 1006.7 |
| 20260505213016 | 10 | 290 | 11.3 | 17.7 | 0.00 | 0.03 | 0.00 | 43 | 1006.7 |
| 20260505212516 | 10 | 283 | 6.4 | 20.9 | 0.00 | 0.03 | 0.00 | 43 | 1006.9 |
| 20260505212016 | 10 | 311 | 9.7 | 20.9 | 0.00 | 0.03 | 0.00 | 43 | 1006.9 |
| 20260505211517 | 10 | 280 | 8.0 | 17.7 | 0.00 | 0.03 | 0.00 | 45 | 1006.9 |
| 20260505211016 | 10 | 280 | 11.3 | 19.3 | 0.00 | 0.03 | 0.00 | 43 | 1006.9 |
| 20260505210517 | 10 | 281 | 14.5 | 19.3 | 0.00 | 0.03 | 0.00 | 42 | 1006.9 |
| 20260505210016 | 10 | 279 | 11.3 | 19.3 | 0.00 | 0.03 | 0.00 | 43 | 1006.8 |
| 20260505205516 | 10 | 308 | 6.4 | 17.7 | 0.00 | 0.03 | 0.00 | 42 | 1006.8 |
| 20260505205016 | 10 | 268 | 12.9 | 19.3 | 0.00 | 0.03 | 0.00 | 43 | 1006.8 |
| 20260505204516 | 10 | 291 | 9.7 | 19.3 | 0.00 | 0.03 | 0.00 | 42 | 1006.8 |
| 20260505204016 | 10 | 280 | 11.3 | 22.5 | 0.00 | 0.03 | 0.00 | 42 | 1006.9 |
| 20260505203516 | 10 | 271 | 11.3 | 22.5 | 0.00 | 0.03 | 0.00 | 42 | 1007.0 |
| 20260505203017 | 10 | 303 | 14.5 | 22.5 | 0.00 | 0.03 | 0.00 | 41 | 1007.0 |
| 20260505202517 | 10 | 286 | 12.9 | 22.5 | 0.00 | 0.03 | 0.00 | 41 | 1007.2 |
| 20260505202016 | 10 | 303 | 12.9 | 20.9 | 0.00 | 0.03 | 0.00 | 41 | 1007.2 |
| 20260505201516 | 10 | 285 | 11.3 | 19.3 | 0.00 | 0.03 | 0.00 | 42 | 1007.2 |
| 20260505201016 | 10 | 283 | 9.7 | 20.9 | 0.00 | 0.03 | 0.00 | 42 | 1007.1 |
| 20260505200537 | 10 | 282 | 12.9 | 24.1 | 0.00 | 0.03 | 0.00 | 41 | 1007.1 |
| 20260505200016 | 10 | 300 | 14.5 | 24.1 | 0.00 | 0.03 | 0.00 | 41 | 1007.1 |
| 20260505195516 | 10 | 307 | 11.3 | 22.5 | 0.00 | 0.03 | 0.00 | 42 | 1007.1 |
| 20260505195016 | 10 | 275 | 12.9 | 22.5 | 0.00 | 0.03 | 0.00 | 42 | 1007.1 |
| 20260505194517 | 10 | 276 | 11.3 | 19.3 | 0.00 | 0.03 | 0.00 | 41 | 1007.2 |
| 20260505194016 | 10 | 296 | 11.3 | 20.9 | 0.00 | 0.03 | 0.00 | 41 | 1007.2 |
| 20260505193516 | 10 | 310 | 11.3 | 22.5 | 0.00 | 0.03 | 0.00 | 42 | 1007.2 |
| 20260505193018 | 10 | 289 | 12.9 | 25.7 | 0.00 | 0.03 | 0.00 | 41 | 1007.3 |
| 20260505192516 | 10 | 309 | 16.1 | 25.7 | 0.00 | 0.03 | 0.00 | 41 | 1007.3 |
| 20260505192016 | 10 | 304 | 14.5 | 25.7 | 0.00 | 0.03 | 0.00 | 42 | 1007.3 |
| 20260505191517 | 10 | 291 | 16.1 | 25.7 | 0.00 | 0.03 | 0.00 | 40 | 1007.3 |
| 20260505191037 | 10 | 278 | 12.9 | 22.5 | 0.00 | 0.03 | 0.00 | 41 | 1007.2 |
| 20260505190517 | 10 | 294 | 12.9 | 24.1 | 0.00 | 0.03 | 0.00 | 41 | 1007.1 |
| 20260505190036 | 10 | 300 | 16.1 | 24.1 | 0.00 | 0.03 | 0.00 | 39 | 1007.0 |
| 20260505185516 | 10 | 298 | 14.5 | 24.1 | 0.00 | 0.03 | 0.00 | 39 | 1006.9 |
| 20260505185017 | 10 | 296 | 14.5 | 24.1 | 0.00 | 0.03 | 0.00 | 37 | 1006.8 |
| 20260505184538 | 10 | 282 | 11.3 | 20.9 | 0.00 | 0.03 | 0.00 | 39 | 1006.8 |
| 20260505184017 | 10 | 295 | 11.3 | 20.9 | 0.00 | 0.03 | 0.00 | 39 | 1006.8 |
| 20260505183516 | 10 | 278 | 14.5 | 22.5 | 0.00 | 0.03 | 0.00 | 38 | 1006.7 |
| 20260505183016 | 10 | 311 | 12.9 | 22.5 | 0.00 | 0.03 | 0.00 | 37 | 1006.7 |
| 20260505182516 | 10 | 284 | 12.9 | 30.6 | 0.00 | 0.03 | 0.00 | 38 | 1006.8 |
| 20260505182016 | 10 | 275 | 14.5 | 30.6 | 0.00 | 0.03 | 0.00 | 37 | 1006.8 |
| 20260505181516 | 10 | 277 | 14.5 | 25.7 | 0.00 | 0.03 | 0.00 | 37 | 1006.8 |
| 20260505181016 | 10 | 286 | 14.5 | 29.0 | 0.00 | 0.03 | 0.00 | 39 | 1006.6 |
| 20260505180556 | 10 | 311 | 17.7 | 29.0 | 0.00 | 0.03 | 0.00 | 36 | 1006.7 |
| 20260505180016 | 10 | 315 | 12.9 | 22.5 | 0.00 | 0.03 | 0.00 | 38 | 1006.5 |
| 20260505175516 | 10 | 296 | 12.9 | 27.4 | 0.00 | 0.03 | 0.00 | 36 | 1006.5 |
| 20260505175016 | 10 | 277 | 17.7 | 33.8 | 0.00 | 0.03 | 0.00 | 36 | 1006.6 |
| 20260505174516 | 10 | 288 | 19.3 | 33.8 | 0.00 | 0.03 | 0.00 | 36 | 1006.7 |
| 20260505174016 | 10 | 299 | 14.5 | 22.5 | 0.00 | 0.03 | 0.00 | 37 | 1006.5 |
| 20260505173516 | 10 | 305 | 14.5 | 25.7 | 0.00 | 0.03 | 0.00 | 38 | 1006.4 |
| 20260505173016 | 10 | 320 | 16.1 | 25.7 | 0.00 | 0.03 | 0.00 | 39 | 1006.5 |
| 20260505172517 | 10 | 323 | 16.1 | 24.1 | 0.00 | 0.03 | 0.00 | 36 | 1006.2 |
| 20260505172036 | 10 | 329 | 16.1 | 27.4 | 0.00 | 0.03 | 0.00 | 37 | 1006.2 |
| 20260505171516 | 10 | 327 | 16.1 | 27.4 | 0.00 | 0.03 | 0.00 | 39 | 1006.2 |
| 20260505171056 | 10 | 302 | 16.1 | 25.7 | 0.00 | 0.03 | 0.00 | 36 | 1006.3 |
| 20260505170516 | 10 | 300 | 12.9 | 27.4 | 0.00 | 0.03 | 0.00 | 41 | 1005.9 |
| 20260505170016 | 10 | 314 | 16.1 | 27.4 | 0.00 | 0.03 | 0.00 | 38 | 1006.0 |
| 20260505165517 | 10 | 329 | 14.5 | 25.7 | 0.00 | 0.03 | 0.00 | 40 | 1005.9 |
| 20260505165016 | 10 | 299 | 14.5 | 24.1 | 0.00 | 0.03 | 0.00 | 39 | 1005.9 |
| 20260505164537 | 10 | 321 | 11.3 | 22.5 | 0.00 | 0.03 | 0.00 | 39 | 1005.9 |
| 20260505164016 | 10 | 301 | 14.5 | 27.4 | 0.00 | 0.03 | 0.00 | 39 | 1005.7 |
| 20260505163516 | 10 | 322 | 16.1 | 27.4 | 0.00 | 0.03 | 0.00 | 40 | 1005.7 |
| 20260505163015 | 10 | 290 | 12.9 | 20.9 | 0.00 | 0.03 | 0.00 | 42 | 1005.7 |
| 20260505162538 | 10 | 256 | 11.3 | 25.7 | 0.00 | 0.03 | 0.00 | 42 | 1005.9 |
| 20260505162016 | 10 | 292 | 12.9 | 25.7 | 0.00 | 0.03 | 0.00 | 41 | 1006.0 |
| 20260505161537 | 10 | 330 | 16.1 | 24.1 | 0.00 | 0.03 | 0.00 | 42 | 1006.2 |
| 20260505161015 | 10 | 340 | 12.9 | 24.1 | 0.00 | 0.03 | 0.00 | 43 | 1006.0 |
| 20260505160516 | 9 | 308 | 14.5 | 24.1 | 0.00 | 0.03 | 0.00 | 41 | 1006.1 |
| 20260505153016 | 8 | 295 | 12.9 | 20.9 | 0.00 | 0.03 | 0.00 | 44 | 1006.0 |
| 20260505152516 | 8 | 314 | 11.3 | 22.5 | 0.00 | 0.03 | 0.00 | 44 | 1005.9 |
| 20260505152017 | 8 | 310 | 14.5 | 24.1 | 0.00 | 0.03 | 0.00 | 44 | 1006.1 |
| 20260505151515 | 8 | 303 | 14.5 | 24.1 | 0.00 | 0.03 | 0.00 | 44 | 1006.1 |
| 20260505151016 | 8 | 298 | 12.9 | 22.5 | 0.00 | 0.03 | 0.00 | 44 | 1006.4 |
| 20260505150517 | 8 | 293 | 6.4 | 17.7 | 0.00 | 0.03 | 0.00 | 48 | 1006.4 |
| 20260505140515 | 7 | 302 | 14.5 | 27.4 | 0.00 | 0.03 | 0.00 | 59 | 1005.5 |
| 20260505125015 | 7 | 297 | 12.9 | 20.9 | 0.00 | 0.03 | 0.00 | 75 | 1005.5 |
| 20260505124515 | 7 | 295 | 9.7 | 17.7 | 0.00 | 0.03 | 0.00 | 75 | 1005.5 |
| 20260505124035 | 7 | 291 | 9.7 | 19.3 | 0.00 | 0.03 | 0.00 | 76 | 1005.1 |
| 20260505123516 | 7 | 304 | 11.3 | 19.3 | 0.00 | 0.03 | 0.00 | 76 | 1004.8 |
| 20260505123016 | 7 | 308 | 6.4 | 17.7 | 0.00 | 0.03 | 0.00 | 77 | 1004.3 |
| 20260505122515 | 7 | 299 | 11.3 | 17.7 | 0.00 | 0.03 | 0.00 | 77 | 1004.3 |
| 20260505122015 | 7 | 284 | 8.0 | 19.3 | 0.00 | 0.03 | 0.00 | 78 | 1004.6 |
| 20260505121515 | 7 | 288 | 11.3 | 19.3 | 0.00 | 0.03 | 0.00 | 78 | 1004.5 |
| 20260505121015 | 7 | 276 | 12.9 | 24.1 | 0.00 | 0.03 | 0.00 | 78 | 1004.4 |
| 20260505120515 | 7 | 282 | 14.5 | 24.1 | 0.00 | 0.03 | 0.00 | 77 | 1004.3 |
| 20260505120015 | 8 | 288 | 16.1 | 24.1 | 0.00 | 0.03 | 0.00 | 76 | 1004.1 |
| 20260505115516 | 8 | 287 | 12.9 | 22.5 | 0.00 | 0.03 | 0.00 | 74 | 1004.1 |
| 20260505115015 | 8 | 298 | 8.0 | 20.9 | 0.00 | 0.03 | 0.00 | 74 | 1003.7 |
| 20260505114516 | 8 | 297 | 11.3 | 20.9 | 0.00 | 0.03 | 0.00 | 73 | 1003.9 |
| 20260505114016 | 8 | 295 | 8.0 | 16.1 | 0.00 | 0.03 | 0.00 | 73 | 1003.8 |
| 20260505113515 | 8 | 289 | 8.0 | 14.5 | 0.00 | 0.03 | 0.00 | 73 | 1003.5 |
| 20260505113015 | 8 | 307 | 8.0 | 14.5 | 0.00 | 0.03 | 0.00 | 73 | 1003.6 |
| 20260505112515 | 8 | 299 | 4.8 | 9.7 | 0.00 | 0.03 | 0.00 | 73 | 1003.2 |
| 20260505112016 | 8 | 291 | 4.8 | 14.5 | 0.00 | 0.03 | 0.00 | 74 | 1003.3 |
| 20260505111516 | 8 | 271 | 8.0 | 14.5 | 0.00 | 0.03 | 0.00 | 73 | 1003.3 |
| 20260505111015 | 8 | 282 | 6.4 | 12.9 | 0.00 | 0.03 | 0.00 | 73 | 1003.2 |
| 20260505110515 | 8 | 283 | 6.4 | 12.9 | 0.00 | 0.03 | 0.00 | 72 | 1003.0 |
| 20260505102037 | 9 | 251 | 12.9 | 17.7 | 0.00 | 0.03 | 0.00 | 66 | 1002.4 |
| 20260505101517 | 9 | 260 | 9.7 | 14.5 | 0.00 | 0.03 | 0.00 | 66 | 1002.0 |
| 20260505101018 | 9 | 263 | 9.7 | 17.7 | 0.00 | 0.03 | 0.00 | 65 | 1002.1 |
| 20260505100557 | 10 | 264 | 11.3 | 17.7 | 0.00 | 0.03 | 0.00 | 64 | 1002.1 |
| 20260505100017 | 10 | 271 | 9.7 | 17.7 | 0.00 | 0.03 | 0.00 | 64 | 1001.9 |
| 20260505095517 | 10 | 272 | 9.7 | 17.7 | 0.00 | 0.03 | 0.00 | 63 | 1002.1 |
| 20260505095017 | 10 | 261 | 11.3 | 17.7 | 0.00 | 0.03 | 0.00 | 64 | 1002.3 |
| 20260505094518 | 10 | 261 | 11.3 | 17.7 | 0.00 | 0.03 | 0.00 | 64 | 1002.2 |
| 20260505094017 | 10 | 259 | 8.0 | 16.1 | 0.00 | 0.03 | 0.00 | 65 | 1001.9 |
| 20260505093517 | 10 | 261 | 9.7 | 16.1 | 0.00 | 0.03 | 0.00 | 64 | 1001.8 |
| 20260505093018 | 10 | 260 | 8.0 | 12.9 | 0.00 | 0.03 | 0.00 | 64 | 1001.6 |
| 20260505092517 | 10 | 267 | 8.0 | 12.9 | 0.00 | 0.03 | 0.00 | 64 | 1001.6 |
| 20260505092017 | 10 | 284 | 4.8 | 12.9 | 0.00 | 0.03 | 0.00 | 62 | 1001.3 |
| 20260505091537 | 10 | 302 | 3.2 | 12.9 | 0.00 | 0.03 | 0.00 | 59 | 1000.6 |
| 20260505091017 | 10 | 261 | 6.4 | 17.7 | 0.00 | 0.03 | 0.00 | 59 | 1001.7 |
| 20260505090518 | 10 | 281 | 9.7 | 17.7 | 0.00 | 0.03 | 0.00 | 58 | 1001.7 |
| 20260505090017 | 11 | 285 | 6.4 | 17.7 | 0.00 | 0.03 | 0.00 | 58 | 1001.3 |
| 20260505085517 | 11 | 292 | 8.0 | 16.1 | 0.00 | 0.03 | 0.00 | 58 | 1001.2 |
| 20260505085017 | 11 | 290 | 9.7 | 16.1 | 0.00 | 0.03 | 0.00 | 58 | 1001.2 |
| 20260505084518 | 11 | 294 | 8.0 | 17.7 | 0.00 | 0.03 | 0.00 | 58 | 1000.6 |
| 20260505084017 | 11 | 284 | 8.0 | 17.7 | 0.00 | 0.03 | 0.00 | 58 | 1000.8 |
| 20260505083518 | 11 | 295 | 9.7 | 16.1 | 0.00 | 0.03 | 0.00 | 59 | 1001.1 |
| 20260505083017 | 11 | 288 | 11.3 | 16.1 | 0.00 | 0.03 | 0.00 | 61 | 1001.1 |
| 20260505082518 | 11 | 283 | 8.0 | 16.1 | 0.00 | 0.03 | 0.00 | 61 | 1000.8 |
| 20260505082017 | 11 | 284 | 4.8 | 11.3 | 0.00 | 0.03 | 0.00 | 61 | 1000.2 |
| 20260505081517 | 11 | 285 | 4.8 | 14.5 | 0.00 | 0.03 | 0.00 | 62 | 1000.3 |
| 20260505081038 | 11 | 286 | 8.0 | 14.5 | 0.00 | 0.03 | 0.00 | 61 | 1000.4 |
| 20260505080517 | 11 | 293 | 8.0 | 17.7 | 0.00 | 0.03 | 0.00 | 61 | 1000.6 |
| 20260505080016 | 11 | 303 | 11.3 | 17.7 | 0.00 | 0.03 | 0.00 | 60 | 1000.2 |
| 20260505075517 | 11 | 297 | 6.4 | 14.5 | 0.00 | 0.03 | 0.00 | 61 | 1000.1 |
| 20260505075038 | 11 | 305 | 4.8 | 14.5 | 0.00 | 0.03 | 0.00 | 61 | 1000.1 |
| 20260505074537 | 12 | 277 | 4.8 | 12.9 | 0.00 | 0.03 | 0.00 | 61 | 1000.2 |
| 20260505074018 | 12 | 285 | 6.4 | 14.5 | 0.00 | 0.03 | 0.00 | 61 | 999.8 |
| 20260505073516 | 12 | 292 | 8.0 | 17.7 | 0.00 | 0.03 | 0.00 | 60 | 999.9 |
| 20260505073017 | 12 | 301 | 12.9 | 19.3 | 0.00 | 0.03 | 0.00 | 60 | 1000.2 |
| 20260505072516 | 12 | 288 | 11.3 | 20.9 | 0.00 | 0.03 | 0.00 | 61 | 1000.2 |
| 20260505072017 | 12 | 281 | 9.7 | 20.9 | 0.00 | 0.03 | 0.00 | 60 | 1000.0 |
| 20260505071517 | 12 | 287 | 8.0 | 14.5 | 0.00 | 0.03 | 0.00 | 64 | 1000.3 |
| 20260505071017 | 12 | 274 | 6.4 | 20.9 | 0.00 | 0.03 | 0.00 | 64 | 1000.2 |
| 20260505070516 | 12 | 274 | 12.9 | 20.9 | 0.00 | 0.03 | 0.00 | 64 | 1000.6 |
| 20260505070018 | 12 | 277 | 11.3 | 17.7 | 0.00 | 0.03 | 0.00 | 63 | 1000.6 |
| 20260505065516 | 12 | 287 | 8.0 | 17.7 | 0.00 | 0.03 | 0.00 | 64 | 1000.2 |
| 20260505065016 | 13 | 291 | 11.3 | 20.9 | 0.00 | 0.03 | 0.00 | 65 | 999.9 |
| 20260505064516 | 13 | 269 | 9.7 | 20.9 | 0.00 | 0.03 | 0.00 | 66 | 999.9 |
| 20260505064037 | 13 | 260 | 9.7 | 14.5 | 0.00 | 0.03 | 0.00 | 66 | 999.8 |
| 20260505063516 | 13 | 261 | 8.0 | 20.9 | 0.00 | 0.03 | 0.00 | 65 | 999.4 |
| 20260505063017 | 13 | 265 | 11.3 | 20.9 | 0.00 | 0.03 | 0.00 | 65 | 999.6 |
| 20260505062517 | 13 | 272 | 8.0 | 14.5 | 0.00 | 0.03 | 0.00 | 67 | 999.9 |
| 20260505062016 | 13 | 280 | 8.0 | 14.5 | 0.00 | 0.03 | 0.00 | 70 | 999.9 |
| 20260505061517 | 13 | 264 | 6.4 | 14.5 | 0.00 | 0.03 | 0.00 | 71 | 999.8 |